{"data":{"norad_id":68915,"epoch":"2026-05-25T04:00:03.998880Z","epoch_age_seconds":53899,"freshness":"FRESH","line1":"1 68915U 26097W   26145.16671295 -.00486037  00000+0 -94294-2 0  9997","line2":"2 68915  97.2848 341.0269 0002084  99.2077 105.6378 15.49390600  5228","mean_motion":15.493906,"eccentricity":0.0002084,"inclination_deg":97.2848,"raan_deg":341.0269,"arg_perigee_deg":99.2077,"mean_anomaly_deg":105.6378,"bstar":-0.0094294,"rev_number":522,"period_min":92.939766124824,"perigee_km":417.09121694494,"apogee_km":419.92405842993,"semimajor_km":6796.6446376874,"source":"CELESTRAK","updated_at":"2026-05-25T13:38:22.070586Z"}}